Location: Clarks Summit,Pa.
(41.5000°N, 75.6000°W)
Time: 02:32:06
(UTC-05:00)

Hubble Space Telescope - Visible Passes

Search period start: 21 February 2018 00:00
Search period end: 03 March 2018 00:00
Orbit: 537 x 541 km, 28.5° (Epoch: 20 February)

Date Brightness Start Highest point End Pass type
(mag) Time Alt. Az. Time Alt. Az. Time Alt. Az.
21 Feb 3.3 05:33:35 10° SSW 05:35:09 12° S 05:36:43 10° SSE visible
22 Feb 3.2 05:22:55 10° SSW 05:24:45 13° S 05:26:35 10° SSE visible
23 Feb 3.1 05:12:56 11° SSW 05:14:21 13° S 05:16:19 10° SSE visible
24 Feb 3.0 05:03:15 13° S 05:03:55 13° S 05:05:57 10° SSE visible
25 Feb 3.1 04:53:32 13° S 04:53:32 13° S 04:55:31 10° SSE visible
26 Feb 3.2 04:43:51 12° S 04:43:51 12° S 04:45:00 10° SSE visible
27 Feb 3.4 04:34:10 10° SSE 04:34:10 10° SSE 04:34:22 10° SSE visible
